Wadena, MN

3:11 PM CDT on May 23, 2017 (GMT -0500)
Wadena Municipal

Weather History for KADC - August, 2014

Change the Weather History Date:

Sunday, August 17, 2014

  Actual Average Record
Temperature  
Mean Temperature 64 °F -  
Max Temperature 69 °F 77 °F 96 °F (1988)
Min Temperature 59 °F 55 °F 39 °F (2012)
Degree Days  
Heating Degree Days 1    
Growing Degree Days 14 (Base 50)    
Moisture  
Dew Point 60 °F    
Average Humidity 94    
Maximum Humidity 100    
Minimum Humidity 88    
Precipitation  
Precipitation 0.49 in - - ()
Sea Level Pressure  
Sea Level Pressure 29.94 in    
Wind  
Wind Speed 7 mph (East)    
Max Wind Speed 13 mph    
Max Gust Speed 20 mph    
Visibility 7 miles    
Events Rain , Thunderstorm    
Averages and records for this station are not official NWS values.
T = Trace of Precipitation, MM = Missing Value Source: NWS Daily Summary

Daily Weather History Graph

Daily Weather History Graph

Search for Another Location

Airport or City:

Trip Planner

Search our weather history database for the weather conditions in past years. The results will help you decide how hot, cold, wet, or windy it might be!

Date:

Astronomy

Aug. 17, 2014 Rise Set
Actual Time 6:21 AM CDT 8:26 PM CDT
Civil Twilight 5:49 AM CDT 8:59 PM CDT
Nautical Twilight 5:08 AM CDT 9:39 PM CDT
Astronomical Twilight 4:23 AM CDT 10:24 PM CDT
Moon No Moon Rise 2:36 PM CDT (8/17)
Length of Visible Light 15h 10m
Length of Day
14h 05m
Waning Gibbous, 48% of the Moon is Illuminated
Aug 17
Waning Gibbous
Aug 25
New
Sep 2
First Quarter
Sep 8
Full
Sep 15
Last Quarter

Hourly Weather History & Observations

Time (CDT) Temp. Dew Point Humidity Pressure Visibility Wind Dir Wind Speed Gust Speed Precip Events Conditions
12:13 AM 69.8 °F 66.2 °F 88% 29.95 in 5.0 mi ESE 4.6 mph - 0.05 in Rain , Thunderstorm Heavy Thunderstorms and Rain
12:34 AM 68.0 °F 66.2 °F 94% 29.94 in 10.0 mi East 5.8 mph - 0.36 in Rain Light Rain
12:38 AM 68.0 °F 66.2 °F 94% 29.94 in 10.0 mi East 4.6 mph - 0.36 in Rain Light Rain
1:14 AM 66.2 °F 66.2 °F 100% 29.94 in 10.0 mi ESE 9.2 mph - 0.23 in Rain , Thunderstorm Thunderstorms and Rain
1:35 AM 66.2 °F 64.4 °F 94% 29.94 in 10.0 mi ESE 10.4 mph - 0.29 in Rain Light Rain
2:15 AM 66.2 °F 64.4 °F 94% 29.93 in 7.0 mi East 9.2 mph - 0.02 in Rain , Thunderstorm Heavy Thunderstorms and Rain
2:34 AM 64.4 °F 64.4 °F 100% 29.94 in 10.0 mi East 8.1 mph - 0.03 in Rain Light Rain
3:15 AM 64.4 °F 62.6 °F 94% 29.92 in 7.0 mi ESE 12.7 mph 19.6 mph 0.15 in Rain , Thunderstorm Rain
3:35 AM 64.4 °F 62.6 °F 94% 29.95 in 10.0 mi East 4.6 mph - 0.16 in Rain , Thunderstorm Light Thunderstorms and Rain
3:52 AM 64.4 °F 62.6 °F 94% 29.95 in 10.0 mi ESE 8.1 mph - 0.16 in Rain Light Rain
4:14 AM 64.4 °F 62.6 °F 94% 29.95 in 10.0 mi East 4.6 mph - N/A   Overcast
4:35 AM 64.4 °F 62.6 °F 94% 29.95 in 10.0 mi East 9.2 mph - N/A   Overcast
4:53 AM 64.4 °F 62.6 °F 94% 29.95 in 10.0 mi East 9.2 mph - N/A Rain Rain
5:15 AM 62.6 °F 60.8 °F 94% 29.95 in 10.0 mi East 10.4 mph - N/A   Light Drizzle
5:35 AM 62.6 °F 60.8 °F 94% 29.95 in 7.0 mi East 9.2 mph - N/A Rain Light Rain
5:53 AM 62.6 °F 60.8 °F 94% 29.95 in 5.0 mi East 8.1 mph - N/A Rain Light Rain
6:15 AM 62.6 °F 60.8 °F 94% 29.96 in 7.0 mi East 10.4 mph - N/A   Drizzle
6:34 AM 62.6 °F 60.8 °F 94% 29.97 in 10.0 mi East 10.4 mph 17.3 mph N/A Rain Light Rain
6:53 AM 60.8 °F 59.0 °F 94% 29.97 in 10.0 mi East 9.2 mph 16.1 mph N/A Rain Light Rain
7:15 AM 60.8 °F 60.8 °F 100% 29.95 in 10.0 mi East 8.1 mph - N/A   Overcast
7:35 AM 60.8 °F 59.0 °F 94% 29.96 in 10.0 mi East 9.2 mph - N/A   Overcast
7:53 AM 60.8 °F 59.0 °F 94% 29.97 in 10.0 mi East 8.1 mph - N/A Thunderstorm Overcast
8:15 AM 60.8 °F 57.2 °F 88% 29.97 in 10.0 mi East 12.7 mph 18.4 mph N/A   Overcast
8:34 AM 60.8 °F 57.2 °F 88% 29.98 in 7.0 mi East 10.4 mph - N/A Rain Rain
8:53 AM 60.8 °F 57.2 °F 88% 29.98 in 10.0 mi East 11.5 mph 16.1 mph 0.01 in Rain Light Rain
9:15 AM 59.0 °F 57.2 °F 94% 29.97 in 10.0 mi ESE 9.2 mph - N/A   Overcast
9:34 AM 60.8 °F 57.2 °F 88% 29.97 in 10.0 mi East 8.1 mph - N/A   Overcast
9:53 AM 60.8 °F 57.2 °F 88% 29.97 in 10.0 mi East 9.2 mph 16.1 mph N/A   Overcast
10:15 AM 59.0 °F 57.2 °F 94% 29.98 in 10.0 mi East 8.1 mph - N/A   Overcast
10:34 AM 59.0 °F 57.2 °F 94% 29.98 in 7.0 mi East 9.2 mph - N/A   Overcast
10:53 AM 59.0 °F 57.2 °F 94% 29.99 in 7.0 mi East 8.1 mph - N/A   Overcast
11:15 AM 59.0 °F 57.2 °F 94% 29.98 in 7.0 mi East 6.9 mph - N/A   Overcast
11:35 AM 59.0 °F 57.2 °F 94% 29.99 in 7.0 mi East 8.1 mph - N/A   Overcast
11:53 AM 59.0 °F 57.2 °F 94% 29.99 in 5.0 mi East 6.9 mph - N/A   Overcast
12:15 PM 59.0 °F 57.2 °F 94% 29.98 in 5.0 mi East 8.1 mph - N/A   Overcast
12:34 PM 60.8 °F 57.2 °F 88% 29.99 in 4.0 mi East 6.9 mph - N/A   Overcast
12:52 PM 60.8 °F 57.2 °F 88% 29.98 in 5.0 mi ENE 8.1 mph - N/A   Overcast
1:14 PM 59.0 °F 57.2 °F 94% 29.98 in 4.0 mi ENE 6.9 mph - N/A   Overcast
1:35 PM 60.8 °F 57.2 °F 88% 29.97 in 3.0 mi East 6.9 mph - N/A   Overcast
1:53 PM 60.8 °F 57.2 °F 88% 29.97 in 3.0 mi ENE 5.8 mph - N/A   Overcast
2:15 PM 60.8 °F 57.2 °F 88% 29.97 in 5.0 mi East 6.9 mph - N/A   Overcast
2:35 PM 60.8 °F 57.2 °F 88% 29.97 in 5.0 mi East 8.1 mph - N/A   Overcast
2:53 PM 60.8 °F 57.2 °F 88% 29.96 in 5.0 mi East 8.1 mph - N/A   Overcast
3:15 PM 60.8 °F 57.2 °F 88% 29.95 in 4.0 mi East 8.1 mph - N/A Rain Rain
3:35 PM 60.8 °F 57.2 °F 88% 29.96 in 4.0 mi East 6.9 mph - N/A Rain Light Rain
3:52 PM 60.8 °F 59.0 °F 94% 29.95 in 5.0 mi East 8.1 mph - N/A   Overcast
4:14 PM 60.8 °F 59.0 °F 94% 29.95 in 4.0 mi East 8.1 mph - N/A   Overcast
4:34 PM 60.8 °F 59.0 °F 94% 29.95 in 5.0 mi East 9.2 mph - N/A   Overcast
4:53 PM 60.8 °F 59.0 °F 94% 29.94 in 7.0 mi East 6.9 mph - N/A   Overcast
5:15 PM 60.8 °F 59.0 °F 94% 29.94 in 10.0 mi East 6.9 mph - N/A   Overcast
5:35 PM 60.8 °F 59.0 °F 94% 29.93 in 10.0 mi East 4.6 mph - N/A   Overcast
5:53 PM 60.8 °F 59.0 °F 94% 29.92 in 10.0 mi ENE 4.6 mph - N/A   Overcast
6:15 PM 62.6 °F 60.8 °F 94% 29.91 in 10.0 mi East 5.8 mph - N/A   Overcast
6:35 PM 62.6 °F 60.8 °F 94% 29.90 in 10.0 mi ENE 5.8 mph - N/A   Overcast
6:52 PM 62.6 °F 60.8 °F 94% 29.89 in 10.0 mi ENE 4.6 mph - N/A   Overcast
7:14 PM 62.6 °F 60.8 °F 94% 29.88 in 10.0 mi East 5.8 mph - N/A   Overcast
7:35 PM 62.6 °F 60.8 °F 94% 29.89 in 10.0 mi East 5.8 mph - N/A   Overcast
7:53 PM 62.6 °F 60.8 °F 94% 29.90 in 10.0 mi ESE 5.8 mph - N/A   Overcast
8:14 PM 60.8 °F 60.8 °F 100% 29.91 in 2.0 mi ESE 5.8 mph - N/A   Overcast
8:35 PM 60.8 °F 60.8 °F 100% 29.91 in 1.8 mi ESE 5.8 mph - N/A   Overcast
8:53 PM 60.8 °F 60.8 °F 100% 29.90 in 2.5 mi East 4.6 mph - N/A   Overcast
9:15 PM 60.8 °F 60.8 °F 100% 29.90 in 2.0 mi East 4.6 mph - N/A   Overcast
9:35 PM 60.8 °F 60.8 °F 100% 29.90 in 2.0 mi East 5.8 mph - N/A   Mist
9:53 PM 60.8 °F 60.8 °F 100% 29.90 in 1.8 mi ESE 4.6 mph - N/A   Overcast
10:15 PM 60.8 °F 60.8 °F 100% 29.90 in 1.5 mi ESE 4.6 mph - N/A   Overcast
10:34 PM 60.8 °F 60.8 °F 100% 29.90 in 1.5 mi East 3.5 mph - N/A   Overcast
10:53 PM 60.8 °F 60.8 °F 100% 29.88 in 0.8 mi ESE 3.5 mph - N/A   Overcast
11:15 PM 60.8 °F 60.8 °F 100% 29.88 in 1.0 mi East 3.5 mph - N/A   Overcast
11:35 PM 60.8 °F 60.8 °F 100% 29.88 in 0.8 mi Calm Calm - N/A   Overcast
11:53 PM 60.8 °F 60.8 °F 100% 29.87 in 0.8 mi Calm Calm - N/A   Overcast